• In Belarus
  • List of Countries
  • For 7 days
  • Water Temperature
  • Satellite Maps
  • Weather Map
  • Weather Widgets
  • user-avatar
    Login

    Hourly Weather Nashavar

    Today, 22 April, Sunday

    Time Temperature Precipitation Wind Pressure Humidity
    00:00 +23°C° 0 mm 2 mps 730 mmHg 38%
    01:00 +21°C° 0 mm 2 mps 730 mmHg 38%
    02:00 +21°C° 0 mm 2 mps 729 mmHg 37%
    03:00 +21°C° 0 mm 2 mps 729 mmHg 37%
    04:00 +20°C° 0 mm 2 mps 729 mmHg 36%
    05:00 +20°C° 0 mm 2 mps 729 mmHg 35%
    06:00 +21°C° 0 mm 2 mps 729 mmHg 33%
    07:00 +23°C° 0 mm 2 mps 730 mmHg 30%
    08:00 +25°C° 0 mm 2 mps 730 mmHg 28%
    09:00 +26°C° 0 mm 2 mps 730 mmHg 26%
    10:00 +28°C° 0 mm 2 mps 730 mmHg 23%
    11:00 +29°C° 0 mm 2 mps 730 mmHg 21%
    12:00 +30°C° 0 mm 2 mps 730 mmHg 19%
    13:00 +31°C° 0 mm 2 mps 729 mmHg 18%
    14:00 +32°C° 0 mm 1 mps 729 mmHg 16%
    15:00 +32°C° 0 mm 1 mps 729 mmHg 16%
    16:00 +32°C° 0 mm 1 mps 729 mmHg 16%
    17:00 +33°C° 0 mm 1 mps 728 mmHg 15%
    18:00 +31°C° 0 mm 1 mps 729 mmHg 19%
    19:00 +27°C° 0 mm 0 mps 729 mmHg 23%
    20:00 +26°C° 0 mm 0 mps 729 mmHg 27%
    21:00 +25°C° 0 mm 0 mps 730 mmHg 27%
    22:00 +27°C° 0 mm 1 mps 730 mmHg 26%
    23:00 +26°C° 0 mm 1 mps 730 mmHg 26%

    Tomorrow, 23 April, Monday

    Time Temperature Precipitation Wind Pressure Humidity
    00:00 +25°C° 0 mm 1 mps 730 mmHg 26%
    01:00 +25°C° 0 mm 1 mps 730 mmHg 27%
    02:00 +24°C° 0 mm 2 mps 730 mmHg 27%
    03:00 +24°C° 0 mm 2 mps 729 mmHg 27%
    04:00 +23°C° 0 mm 2 mps 729 mmHg 27%
    05:00 +23°C° 0 mm 2 mps 729 mmHg 27%
    06:00 +24°C° 0 mm 2 mps 729 mmHg 25%
    07:00 +26°C° 0 mm 2 mps 729 mmHg 23%
    08:00 +27°C° 0 mm 2 mps 729 mmHg 21%
    09:00 +29°C° 0 mm 2 mps 729 mmHg 19%
    10:00 +30°C° 0 mm 2 mps 729 mmHg 16%
    11:00 +32°C° 0 mm 2 mps 729 mmHg 13%
    12:00 +34°C° 0 mm 2 mps 729 mmHg 12%
    13:00 +35°C° 0 mm 2 mps 728 mmHg 12%
    14:00 +36°C° 0 mm 2 mps 728 mmHg 11%
    15:00 +35°C° 0 mm 1 mps 728 mmHg 11%
    16:00 +36°C° 0 mm 1 mps 727 mmHg 11%
    17:00 +36°C° 0 mm 1 mps 727 mmHg 11%
    18:00 +34°C° 0 mm 1 mps 727 mmHg 15%
    19:00 +32°C° 0 mm 1 mps 728 mmHg 18%
    20:00 +28°C° 0 mm 0 mps 728 mmHg 21%
    21:00 +27°C° 0 mm 0 mps 728 mmHg 22%
    22:00 +29°C° 0 mm 1 mps 728 mmHg 22%
    23:00 +28°C° 0 mm 1 mps 729 mmHg 22%

    Day after tomorrow, 24 April, Tuesday

    Time Temperature Precipitation Wind Pressure Humidity
    00:00 +27°C° 0 mm 1 mps 728 mmHg 23%
    01:00 +27°C° 0 mm 1 mps 728 mmHg 23%
    02:00 +26°C° 0 mm 1 mps 728 mmHg 24%
    03:00 +26°C° 0 mm 1 mps 728 mmHg 24%
    04:00 +25°C° 0 mm 1 mps 728 mmHg 25%
    05:00 +25°C° 0 mm 1 mps 728 mmHg 25%
    06:00 +26°C° 0 mm 1 mps 728 mmHg 24%
    07:00 +28°C° 0 mm 1 mps 728 mmHg 22%
    08:00 +29°C° 0 mm 1 mps 728 mmHg 20%
    09:00 +31°C° 0 mm 1 mps 728 mmHg 18%
    10:00 +32°C° 0 mm 1 mps 728 mmHg 17%
    11:00 +34°C° 0 mm 1 mps 728 mmHg 15%
    12:00 +35°C° 0 mm 1 mps 728 mmHg 14%
    13:00 +36°C° 0 mm 1 mps 728 mmHg 13%
    14:00 +38°C° 0 mm 2 mps 727 mmHg 13%
    15:00 +38°C° 0 mm 2 mps 727 mmHg 13%
    16:00 +38°C° 0 mm 2 mps 726 mmHg 13%
    17:00 +38°C° 0 mm 2 mps 726 mmHg 14%
    18:00 +37°C° 0 mm 2 mps 726 mmHg 17%
    19:00 +34°C° 0 mm 1 mps 726 mmHg 20%
    20:00 +33°C° 0 mm 1 mps 727 mmHg 23%
    21:00 +32°C° 0 mm 1 mps 727 mmHg 24%
    22:00 +31°C° 0 mm 1 mps 727 mmHg 26%
    23:00 +31°C° 0 mm 1 mps 727 mmHg 27%

    25 April, Wednesday

    Time Temperature Precipitation Wind Pressure Humidity
    00:00 +30°C° 0 mm 1 mps 727 mmHg 27%
    01:00 +29°C° 0 mm 1 mps 726 mmHg 27%
    02:00 +29°C° 0 mm 1 mps 726 mmHg 28%
    03:00 +28°C° 0 mm 1 mps 726 mmHg 28%
    04:00 +28°C° 0 mm 1 mps 725 mmHg 28%
    05:00 +27°C° 0 mm 1 mps 725 mmHg 28%
    06:00 +28°C° 0 mm 2 mps 726 mmHg 26%
    07:00 +30°C° 0 mm 2 mps 726 mmHg 25%
    08:00 +31°C° 0 mm 2 mps 726 mmHg 23%
    09:00 +32°C° 0 mm 2 mps 726 mmHg 21%
    10:00 +35°C° 0 mm 2 mps 726 mmHg 18%
    11:00 +36°C° 0 mm 2 mps 726 mmHg 16%
    12:00 +37°C° 0 mm 2 mps 726 mmHg 16%
    13:00 +38°C° 0 mm 2 mps 725 mmHg 15%
    14:00 +38°C° 0 mm 2 mps 725 mmHg 14%
    15:00 +38°C° 0.1 mm 2 mps 724 mmHg 14%
    16:00 +38°C° 0.1 mm 2 mps 724 mmHg 15%
    17:00 +38°C° 0.1 mm 2 mps 724 mmHg 15%
    18:00 +36°C° 0 mm 1 mps 724 mmHg 18%
    19:00 +34°C° 0 mm 1 mps 724 mmHg 20%
    20:00 +33°C° 0 mm 1 mps 725 mmHg 22%
    21:00 +32°C° 0.1 mm 2 mps 725 mmHg 24%
    22:00 +31°C° 0.1 mm 2 mps 725 mmHg 25%
    23:00 +31°C° 0.1 mm 3 mps 726 mmHg 27%

    26 April, Thursday

    Time Temperature Precipitation Wind Pressure Humidity
    00:00 +30°C° 0 mm 3 mps 726 mmHg 28%
    01:00 +29°C° 0 mm 3 mps 725 mmHg 30%
    02:00 +29°C° 0 mm 3 mps 725 mmHg 31%
    03:00 +28°C° 0 mm 3 mps 725 mmHg 32%
    04:00 +27°C° 0 mm 3 mps 725 mmHg 33%
    05:00 +27°C° 0 mm 3 mps 725 mmHg 34%
    06:00 +28°C° 0 mm 3 mps 726 mmHg 31%
    07:00 +29°C° 0 mm 3 mps 726 mmHg 28%
    08:00 +30°C° 0 mm 3 mps 726 mmHg 25%
    09:00 +33°C° 0 mm 3 mps 727 mmHg 22%
    10:00 +35°C° 0 mm 3 mps 727 mmHg 19%
    11:00 +36°C° 0 mm 3 mps 727 mmHg 17%
    12:00 +37°C° 0 mm 3 mps 726 mmHg 16%
    13:00 +38°C° 0 mm 3 mps 726 mmHg 15%
    14:00 +38°C° 0 mm 3 mps 725 mmHg 13%
    15:00 +38°C° 0 mm 2 mps 725 mmHg 14%
    16:00 +38°C° 0 mm 2 mps 725 mmHg 14%
    17:00 +39°C° 0 mm 2 mps 724 mmHg 14%
    18:00 +37°C° 0 mm 2 mps 725 mmHg 16%
    19:00 +34°C° 0 mm 1 mps 725 mmHg 19%
    20:00 +32°C° 0 mm 1 mps 726 mmHg 22%
    21:00 +32°C° 0 mm 1 mps 726 mmHg 22%
    22:00 +31°C° 0 mm 2 mps 726 mmHg 23%
    23:00 +31°C° 0 mm 2 mps 726 mmHg 23%

    27 April, Friday

    Time Temperature Precipitation Wind Pressure Humidity
    00:00 +30°C° 0 mm 2 mps 726 mmHg 24%
    01:00 +29°C° 0 mm 2 mps 726 mmHg 24%
    02:00 +29°C° 0 mm 2 mps 725 mmHg 25%
    03:00 +28°C° 0 mm 2 mps 725 mmHg 25%
    04:00 +28°C° 0 mm 2 mps 726 mmHg 25%
    05:00 +27°C° 0 mm 2 mps 726 mmHg 25%
    06:00 +28°C° 0 mm 2 mps 726 mmHg 23%
    07:00 +29°C° 0 mm 2 mps 726 mmHg 21%
    08:00 +31°C° 0 mm 2 mps 727 mmHg 19%
    09:00 +33°C° 0 mm 3 mps 727 mmHg 17%
    10:00 +35°C° 0 mm 3 mps 727 mmHg 15%
    11:00 +37°C° 0 mm 3 mps 727 mmHg 12%
    12:00 +37°C° 0 mm 3 mps 726 mmHg 12%
    13:00 +38°C° 0 mm 3 mps 726 mmHg 11%
    14:00 +39°C° 0 mm 2 mps 725 mmHg 11%
    15:00 +39°C° 0.1 mm 3 mps 725 mmHg 12%
    16:00 +38°C° 0.1 mm 3 mps 724 mmHg 12%
    17:00 +38°C° 0.1 mm 3 mps 724 mmHg 13%
    18:00 +37°C° 0 mm 3 mps 725 mmHg 15%
    19:00 +35°C° 0 mm 3 mps 725 mmHg 17%
    20:00 +33°C° 0 mm 3 mps 726 mmHg 19%
    21:00 +33°C° 0 mm 4 mps 726 mmHg 20%
    22:00 +32°C° 0 mm 4 mps 726 mmHg 22%
    23:00 +30°C° 0 mm 4 mps 726 mmHg 23%
    Show more